| time (UTC) | temp F | wind direction | speed knots | gust knots | rain 1hr in | rain 24hr in | rain mn in | humidity % | barometer mb |
| 20260510023621 | 62 | 0.0 | 0.0 | 0.00 | 0.00 | 0.00 | 68 | 1012.2 | |
| 20260510022617 | 62 | 292 | 0.9 | 1.7 | 0.00 | 0.00 | 0.00 | 68 | 1012.4 |
| 20260510021607 | 62 | 292 | 0.0 | 1.7 | 0.00 | 0.00 | 0.00 | 68 | 1012.4 |
| 20260510020604 | 62 | 292 | 1.7 | 2.6 | 0.00 | 0.00 | 0.00 | 68 | 1012.5 |
| 20260510015600 | 62 | 292 | 0.9 | 1.7 | 0.00 | 0.00 | 0.00 | 68 | 1012.9 |
| 20260510014638 | 62 | 292 | 0.9 | 2.6 | 0.00 | 0.00 | 0.00 | 67 | 1012.8 |
| 20260510013553 | 62 | 315 | 0.9 | 1.7 | 0.00 | 0.00 | 0.00 | 67 | 1012.8 |
| 20260510012551 | 62 | 292 | 0.0 | 1.7 | 0.00 | 0.00 | 0.00 | 67 | 1012.9 |
| 20260510011541 | 62 | 292 | 1.7 | 2.6 | 0.00 | 0.00 | 0.00 | 68 | 1012.8 |
| 20260510010537 | 62 | 292 | 0.0 | 1.7 | 0.00 | 0.00 | 0.00 | 68 | 1012.9 |
| 20260510005533 | 62 | 292 | 0.9 | 1.7 | 0.00 | 0.00 | 0.00 | 68 | 1013.4 |
| 20260510004529 | 62 | 0.0 | 0.0 | 0.00 | 0.00 | 0.00 | 68 | 1013.2 | |
| 20260510003539 | 62 | 315 | 1.7 | 3.5 | 0.00 | 0.00 | 0.00 | 68 | 1013.2 |
| 20260510002515 | 63 | 292 | 1.7 | 2.6 | 0.00 | 0.00 | 0.00 | 68 | 1013.0 |
| 20260510001511 | 63 | 315 | 0.9 | 2.6 | 0.00 | 0.00 | 0.00 | 68 | 1013.5 |
| 20260510000508 | 63 | 315 | 0.9 | 2.6 | 0.00 | 0.00 | 0.00 | 68 | 1013.4 |
| 20260509235504 | 63 | 292 | 1.7 | 3.5 | 0.00 | 0.00 | 0.00 | 67 | 1013.9 |
| 20260509234503 | 63 | 292 | 1.7 | 2.6 | 0.00 | 0.00 | 0.00 | 68 | 1013.7 |
| 20260509234000 | 63 | 292 | 2.6 | 3.5 | 0.00 | 0.00 | 0.00 | 68 | 1013.8 |
| 20260509232958 | 62 | 315 | 1.7 | 2.6 | 0.00 | 0.00 | 0.00 | 69 | 1013.8 |
| 20260509231953 | 62 | 315 | 0.9 | 2.6 | 0.00 | 0.00 | 0.00 | 69 | 1013.7 |
| 20260509230950 | 62 | 315 | 2.6 | 3.5 | 0.00 | 0.00 | 0.00 | 70 | 1013.7 |
| 20260509225946 | 62 | 292 | 0.9 | 2.6 | 0.00 | 0.00 | 0.00 | 70 | 1013.8 |
| 20260509224943 | 62 | 292 | 0.0 | 0.9 | 0.00 | 0.00 | 0.00 | 71 | 1013.6 |
| 20260509223941 | 62 | 292 | 0.9 | 1.7 | 0.00 | 0.00 | 0.00 | 70 | 1013.8 |
| 20260509222930 | 62 | 0.0 | 0.9 | 0.00 | 0.00 | 0.00 | 70 | 1013.8 | |
| 20260509222007 | 62 | 0.0 | 0.0 | 0.00 | 0.00 | 0.00 | 69 | 1013.9 | |
| 20260509221042 | 62 | 0.0 | 0.0 | 0.00 | 0.00 | 0.00 | 69 | 1013.8 | |
| 20260509215940 | 63 | 0.0 | 0.0 | 0.00 | 0.00 | 0.00 | 68 | 1013.9 | |
| 20260509214915 | 63 | 0.0 | 0.0 | 0.00 | 0.00 | 0.00 | 68 | 1013.8 | |
| 20260509213906 | 63 | 0.0 | 0.0 | 0.00 | 0.00 | 0.00 | 68 | 1013.7 | |
| 20260509212903 | 64 | 0.0 | 0.0 | 0.00 | 0.00 | 0.00 | 66 | 1013.7 | |
| 20260509211856 | 64 | 0.0 | 0.0 | 0.00 | 0.00 | 0.00 | 66 | 1013.6 | |
| 20260509210853 | 63 | 270 | 0.9 | 1.7 | 0.00 | 0.00 | 0.00 | 66 | 1013.7 |
| 20260509205850 | 64 | 0.0 | 0.9 | 0.00 | 0.00 | 0.00 | 66 | 1013.4 | |
| 20260509204841 | 63 | 0.0 | 0.0 | 0.00 | 0.00 | 0.00 | 68 | 1013.6 | |
| 20260509203838 | 64 | 0.0 | 0.0 | 0.00 | 0.00 | 0.00 | 67 | 1013.5 | |
| 20260509202829 | 65 | 0.0 | 0.0 | 0.00 | 0.00 | 0.00 | 65 | 1013.5 | |
| 20260509201824 | 65 | 0.0 | 0.0 | 0.00 | 0.00 | 0.00 | 65 | 1013.4 | |
| 20260509200820 | 66 | 0.0 | 0.0 | 0.00 | 0.00 | 0.00 | 65 | 1013.3 | |
| 20260509195818 | 66 | 0.0 | 0.0 | 0.00 | 0.00 | 0.00 | 65 | 1013.3 | |
| 20260509194814 | 66 | 0.0 | 0.0 | 0.00 | 0.00 | 0.00 | 63 | 1013.0 | |
| 20260509193811 | 67 | 0.0 | 0.0 | 0.00 | 0.00 | 0.00 | 64 | 1013.0 | |
| 20260509192808 | 68 | 0.0 | 0.0 | 0.00 | 0.00 | 0.00 | 63 | 1012.9 | |
| 20260509191803 | 68 | 0.0 | 0.0 | 0.00 | 0.00 | 0.00 | 60 | 1012.8 | |
| 20260509190754 | 69 | 0.0 | 0.0 | 0.00 | 0.00 | 0.00 | 58 | 1012.6 | |
| 20260509185750 | 70 | 0.0 | 0.0 | 0.00 | 0.00 | 0.00 | 52 | 1012.7 | |
| 20260509184747 | 70 | 0.0 | 0.0 | 0.00 | 0.00 | 0.00 | 52 | 1012.7 | |
| 20260509183743 | 70 | 0.0 | 0.0 | 0.00 | 0.00 | 0.00 | 52 | 1012.8 | |
| 20260509182739 | 71 | 0.0 | 0.0 | 0.00 | 0.00 | 0.00 | 50 | 1012.7 | |
| 20260509181729 | 71 | 0.0 | 0.0 | 0.00 | 0.00 | 0.00 | 50 | 1012.9 | |
| 20260509180726 | 72 | 0.0 | 0.0 | 0.00 | 0.00 | 0.00 | 49 | 1012.7 | |
| 20260509175737 | 73 | 0.0 | 0.0 | 0.00 | 0.00 | 0.00 | 47 | 1012.8 | |
| 20260509174714 | 73 | 0.0 | 0.0 | 0.00 | 0.00 | 0.00 | 46 | 1012.4 | |
| 20260509173729 | 74 | 0.0 | 0.0 | 0.00 | 0.00 | 0.00 | 45 | 1012.6 | |
| 20260509172726 | 74 | 0.0 | 0.0 | 0.00 | 0.00 | 0.00 | 43 | 1012.7 | |
| 20260509171656 | 74 | 0.0 | 0.0 | 0.00 | 0.00 | 0.00 | 43 | 1012.9 | |
| 20260509170713 | 74 | 0.0 | 0.9 | 0.00 | 0.00 | 0.00 | 44 | 1012.8 | |
| 20260509165648 | 74 | 0.0 | 0.0 | 0.00 | 0.00 | 0.00 | 44 | 1012.7 | |
| 20260509164728 | 74 | 0.0 | 0.9 | 0.00 | 0.00 | 0.00 | 43 | 1012.8 | |
| 20260509163641 | 75 | 292 | 0.0 | 0.9 | 0.00 | 0.00 | 0.00 | 42 | 1013.0 |
| 20260509162634 | 76 | 0.0 | 0.9 | 0.00 | 0.00 | 0.00 | 42 | 1012.9 | |
| 20260509161630 | 75 | 0.0 | 0.0 | 0.00 | 0.00 | 0.00 | 41 | 1012.9 | |
| 20260509160624 | 75 | 0.0 | 0.9 | 0.00 | 0.00 | 0.00 | 41 | 1013.2 | |
| 20260509155621 | 75 | 315 | 1.7 | 2.6 | 0.00 | 0.00 | 0.00 | 41 | 1013.2 |
| 20260509154620 | 76 | 315 | 0.0 | 0.9 | 0.00 | 0.00 | 0.00 | 40 | 1013.0 |
| 20260509153608 | 75 | 292 | 0.9 | 1.7 | 0.00 | 0.00 | 0.00 | 41 | 1013.2 |
| 20260509152604 | 75 | 315 | 0.0 | 1.7 | 0.00 | 0.00 | 0.00 | 41 | 1013.2 |
| 20260509151602 | 76 | 0.0 | 0.9 | 0.00 | 0.00 | 0.00 | 41 | 1013.2 | |
| 20260509150557 | 76 | 315 | 1.7 | 1.7 | 0.00 | 0.00 | 0.00 | 43 | 1013.3 |
| 20260509145553 | 76 | 112 | 0.9 | 1.7 | 0.00 | 0.00 | 0.00 | 43 | 1013.3 |
| 20260509144550 | 76 | 112 | 0.9 | 2.6 | 0.00 | 0.00 | 0.00 | 45 | 1013.3 |
| 20260509143541 | 73 | 315 | 2.6 | 5.2 | 0.00 | 0.00 | 0.00 | 45 | 1013.3 |
| 20260509142532 | 76 | 292 | 0.9 | 1.7 | 0.00 | 0.00 | 0.00 | 44 | 1013.4 |
| 20260509141527 | 74 | 315 | 1.7 | 3.5 | 0.00 | 0.00 | 0.00 | 46 | 1013.6 |
| 20260509140523 | 75 | 315 | 0.9 | 0.9 | 0.00 | 0.00 | 0.00 | 45 | 1013.6 |
| 20260509135518 | 76 | 292 | 0.0 | 1.7 | 0.00 | 0.00 | 0.00 | 46 | 1013.7 |
| 20260509134515 | 76 | 315 | 1.7 | 1.7 | 0.00 | 0.00 | 0.00 | 45 | 1014.1 |
| 20260509133506 | 76 | 292 | 1.7 | 2.6 | 0.00 | 0.00 | 0.00 | 44 | 1014.0 |
| 20260509132505 | 75 | 0 | 0.9 | 1.7 | 0.00 | 0.00 | 0.00 | 46 | 1014.3 |
| 20260509131459 | 75 | 292 | 0.9 | 2.6 | 0.00 | 0.00 | 0.00 | 46 | 1014.4 |
| 20260509130454 | 77 | 0.0 | 0.0 | 0.00 | 0.00 | 0.00 | 43 | 1014.3 | |
| 20260509125451 | 77 | 292 | 0.0 | 1.7 | 0.00 | 0.00 | 0.00 | 43 | 1014.4 |
| 20260509124447 | 76 | 315 | 1.7 | 2.6 | 0.00 | 0.00 | 0.00 | 43 | 1014.6 |
| 20260509123444 | 75 | 315 | 2.6 | 3.5 | 0.00 | 0.00 | 0.00 | 45 | 1014.4 |
| 20260509122441 | 77 | 270 | 0.9 | 2.6 | 0.00 | 0.00 | 0.00 | 43 | 1014.3 |
| 20260509121439 | 77 | 0 | 0.0 | 0.9 | 0.00 | 0.00 | 0.00 | 41 | 1014.8 |
| 20260509120428 | 77 | 0.0 | 0.9 | 0.00 | 0.00 | 0.00 | 37 | 1014.7 | |
| 20260509115423 | 76 | 90 | 0.9 | 5.2 | 0.00 | 0.00 | 0.00 | 41 | 1014.7 |
| 20260509114419 | 76 | 292 | 1.7 | 3.5 | 0.00 | 0.00 | 0.00 | 41 | 1014.7 |
| 20260509113417 | 74 | 112 | 0.9 | 1.7 | 0.00 | 0.00 | 0.00 | 42 | 1014.7 |
| 20260509112427 | 73 | 135 | 1.7 | 2.6 | 0.00 | 0.00 | 0.00 | 46 | 1014.8 |
| 20260509111404 | 76 | 112 | 1.7 | 3.5 | 0.00 | 0.00 | 0.00 | 42 | 1014.8 |
| 20260509110354 | 76 | 315 | 0.0 | 1.7 | 0.00 | 0.00 | 0.00 | 45 | 1015.2 |
| 20260509105350 | 75 | 0.0 | 0.9 | 0.00 | 0.00 | 0.00 | 46 | 1015.2 | |
| 20260509104346 | 74 | 112 | 0.9 | 1.7 | 0.00 | 0.00 | 0.00 | 46 | 1015.6 |
| 20260509103343 | 76 | 135 | 0.9 | 1.7 | 0.00 | 0.00 | 0.00 | 42 | 1015.9 |
| 20260509102339 | 75 | 292 | 0.9 | 1.7 | 0.00 | 0.00 | 0.00 | 44 | 1015.8 |
| 20260509101334 | 76 | 112 | 0.9 | 1.7 | 0.00 | 0.00 | 0.00 | 42 | 1015.9 |
| 20260509100331 | 74 | 202 | 0.0 | 0.9 | 0.00 | 0.00 | 0.00 | 46 | 1015.8 |
| 20260509095330 | 73 | 270 | 0.9 | 1.7 | 0.00 | 0.00 | 0.00 | 47 | 1016.0 |
| 20260509094326 | 75 | 0.0 | 0.9 | 0.00 | 0.00 | 0.00 | 48 | 1016.3 | |
| 20260509093318 | 73 | 270 | 0.0 | 0.9 | 0.00 | 0.00 | 0.00 | 52 | 1016.2 |
| 20260509092313 | 74 | 292 | 0.9 | 1.7 | 0.00 | 0.00 | 0.00 | 50 | 1015.9 |
| 20260509091330 | 74 | 292 | 0.9 | 1.7 | 0.00 | 0.00 | 0.00 | 52 | 1016.0 |
| 20260509090305 | 74 | 247 | 0.0 | 0.9 | 0.00 | 0.00 | 0.00 | 52 | 1016.0 |
| 20260509085255 | 73 | 292 | 0.0 | 0.9 | 0.00 | 0.00 | 0.00 | 54 | 1016.3 |
| 20260509084333 | 71 | 292 | 0.9 | 1.7 | 0.00 | 0.00 | 0.00 | 56 | 1016.4 |
| 20260509083309 | 73 | 0.0 | 0.0 | 0.00 | 0.00 | 0.00 | 54 | 1016.4 | |
| 20260509082245 | 72 | 292 | 0.0 | 0.9 | 0.00 | 0.00 | 0.00 | 57 | 1016.2 |
| 20260509081241 | 71 | 292 | 0.9 | 1.7 | 0.00 | 0.00 | 0.00 | 57 | 1016.4 |
| 20260509080238 | 71 | 292 | 0.0 | 0.9 | 0.00 | 0.00 | 0.00 | 60 | 1016.3 |
| 20260509075234 | 71 | 292 | 0.0 | 0.9 | 0.00 | 0.00 | 0.00 | 59 | 1016.5 |
| 20260509074231 | 70 | 292 | 0.9 | 1.7 | 0.00 | 0.00 | 0.00 | 60 | 1016.7 |
| 20260509073249 | 71 | 292 | 0.0 | 1.7 | 0.00 | 0.00 | 0.00 | 58 | 1016.4 |
| 20260509072243 | 69 | 0.0 | 0.0 | 0.00 | 0.00 | 0.00 | 61 | 1016.3 | |
| 20260509071220 | 68 | 292 | 0.0 | 0.9 | 0.00 | 0.00 | 0.00 | 61 | 1016.1 |
| 20260509070218 | 66 | 292 | 0.9 | 1.7 | 0.00 | 0.00 | 0.00 | 66 | 1016.4 |
| 20260509065255 | 66 | 292 | 0.0 | 0.9 | 0.00 | 0.00 | 0.00 | 67 | 1016.3 |
| 20260509064209 | 63 | 292 | 1.7 | 1.7 | 0.00 | 0.00 | 0.00 | 71 | 1016.2 |
| 20260509063206 | 62 | 292 | 0.9 | 2.6 | 0.00 | 0.00 | 0.00 | 75 | 1016.2 |
| 20260509062203 | 62 | 292 | 1.7 | 1.7 | 0.00 | 0.00 | 0.00 | 74 | 1016.0 |
| 20260509060911 | 60 | 292 | 1.7 | 1.7 | 0.00 | 0.00 | 0.00 | 76 | 1016.3 |
| 20260509055907 | 60 | 292 | 0.9 | 1.7 | 0.00 | 0.00 | 0.00 | 76 | 1016.3 |
| 20260509054923 | 59 | 292 | 0.9 | 1.7 | 0.00 | 0.00 | 0.00 | 77 | 1016.2 |
| 20260509053919 | 60 | 0.0 | 0.9 | 0.00 | 0.00 | 0.00 | 76 | 1016.3 | |
| 20260509052855 | 60 | 0.0 | 0.0 | 0.00 | 0.00 | 0.00 | 77 | 1016.2 | |
| 20260509051850 | 59 | 0.0 | 0.0 | 0.00 | 0.00 | 0.00 | 78 | 1016.1 | |
| 20260509050906 | 57 | 315 | 0.0 | 0.9 | 0.00 | 0.00 | 0.00 | 80 | 1016.1 |
| 20260509045842 | 56 | 0.0 | 0.0 | 0.00 | 0.00 | 0.00 | 84 | 1015.9 | |
| 20260509044838 | 54 | 0.0 | 0.0 | 0.00 | 0.00 | 0.00 | 86 | 1015.7 | |
| 20260509043855 | 54 | 0.0 | 0.0 | 0.00 | 0.00 | 0.00 | 87 | 1015.6 | |
| 20260509042831 | 53 | 0.0 | 0.0 | 0.00 | 0.00 | 0.00 | 88 | 1015.3 | |
| 20260509041827 | 52 | 0.0 | 0.0 | 0.00 | 0.00 | 0.00 | 88 | 1015.5 | |
| 20260509040825 | 52 | 0.0 | 0.0 | 0.00 | 0.00 | 0.00 | 89 | 1015.3 | |
| 20260509035820 | 53 | 0.0 | 0.0 | 0.00 | 0.00 | 0.00 | 89 | 1015.3 | |
| 20260509034817 | 53 | 0.0 | 0.0 | 0.00 | 0.00 | 0.00 | 88 | 1015.2 | |
| 20260509033813 | 53 | 0.0 | 0.0 | 0.00 | 0.00 | 0.00 | 89 | 1015.4 | |
| 20260509032811 | 53 | 0.0 | 0.0 | 0.00 | 0.00 | 0.00 | 89 | 1015.4 | |
| 20260509031807 | 53 | 292 | 0.0 | 0.9 | 0.00 | 0.00 | 0.00 | 88 | 1015.3 |
| 20260509030825 | 53 | 0.0 | 0.0 | 0.00 | 0.00 | 0.00 | 89 | 1015.5 | |
| 20260509025801 | 53 | 0.0 | 0.0 | 0.00 | 0.00 | 0.00 | 89 | 1015.3 | |
| 20260509024758 | 53 | 0.0 | 0.9 | 0.00 | 0.00 | 0.00 | 89 | 1015.1 | |
| 20260509023756 | 53 | 315 | 1.7 | 2.6 | 0.00 | 0.00 | 0.00 | 88 | 1015.1 |